Regional Weather Roundup
Issued by NWS

Home | Current Version | Previous Version | Graphics & Text | Print | Product List | Glossary On
Versions: 1 2 3 4 5 6 7 8 9 10 11 12 13 14 15 16 17 18 19 20 21 22 23 24 25 26 27 28 29 30 31 32 33 34 35 36 37 38 39 40 41 42 43 44 45 46 47 48 49 50
000
ASUS43 KDMX 270007
RWRIA

WEATHER ROUNDUP FOR IOWA
NATIONAL WEATHER SERVICE DES MOINES IA
600 PM CST MON JAN 26 2015

NOTE: "FAIR" INDICATES FEW OR NO CLOUDS BELOW 12,000 FEET WITH NO
SIGNIFICANT WEATHER AND/OR OBSTRUCTIONS TO VISIBILITY.

* - THESE STATIONS ARE NOT NWS STATIONS...THUS NOT UNDER NWS
QUALITY CONTROL.  THEY ALSO DO NOT REPORT WEATHER SUCH
AS PRECIPITATION OR FOG.

IAZ001>003-012>014-020>022-031>034-043>046-270100-
   NORTHWEST IOWA

CITY           SKY/WX    TMP DP  RH WIND       PRES   REMARKS
CARROLL *      CLEAR     43  37  81 W15       29.92R
CHEROKEE *     CLEAR     42  37  82 NW9       29.94R
DENISON *      CLEAR     46  37  71 NW13      29.93R
LE MARS *      CLEAR     43  37  81 NW14      29.96S
ORANGE CITY *  CLEAR     39  34  81 NW12      29.95R WCI  32
SHELDON *      CLEAR     39  36  87 NW12G17   29.93R WCI  32
SIOUX CITY     CLEAR     47  35  63 NW12      29.98R
6HR MIN TEMP:  47; 6HR MAX TEMP:  55;

SPENCER        CLEAR     39  33  79 NW12      29.92R WCI  32
6HR MIN TEMP:  39; 6HR MAX TEMP:  48;

STORM LAKE *   CLEAR     41  36  81 NW14      29.93R
$$

IAZ055>058-069>071-079>083-090>094-270100-
   SOUTHWEST IOWA

CITY           SKY/WX    TMP DP  RH WIND       PRES   REMARKS
ATLANTIC *     CLEAR     45  36  70 NW10      29.94R
AUDUBON *      CLEAR     45  36  70 W8        29.94S
CLARINDA *     CLEAR     50  36  57 NW10      29.97S
COUNCIL BLFS * CLEAR     48  36  61 NW9G15    29.96R
CRESTON *      CLEAR     43  36  75 NW12      29.93R
HARLAN  *      CLEAR     43  37  81 NW9       29.99R
LAMONI         CLEAR     43  34  70 W12       29.91R
6HR MIN TEMP:  43; 6HR MAX TEMP:  54;

RED OAK *      CLEAR     46  34  61 NW7       29.96S
SHENANDOAH *   CLEAR     50  34  53 N7        29.98R
$$

IAZ047>049-059>061-072>074-084-270100-
   CENTRAL IOWA

CITY           SKY/WX    TMP DP  RH WIND       PRES   REMARKS
AMES           CLOUDY    45  36  70 NW16      29.89R
6HR MIN TEMP:  45; 6HR MAX TEMP:  51;

ANKENY *       CLEAR     46  37  71 NW16G26   29.89R
CHARITON *     CLEAR     46  36  66 NW13      29.88R
DES MOINES     PTCLDY    48  36  63 NW15      29.90R
6HR MIN TEMP:  46; 6HR MAX TEMP:  53;

GRINNELL*      MOCLDY    41  36  81 NW7       29.87R
KNOXVILLE *    CLOUDY    46  36  66 NW14      29.87R
MARSHALLTOWN   PTCLDY    37  34  89 NW9       29.85R WCI  30
6HR MIN TEMP:  37; 6HR MAX TEMP:  47;

PELLA *        CLOUDY    45  38  75 NW10      29.89R
PERRY *          N/A     45  37  76 NW10      29.91R
$$

IAZ004>006-015-016-023>025-035-036-270100-
   NORTH CENTRAL IOWA

CITY           SKY/WX    TMP DP  RH WIND       PRES   REMARKS
ALGONA *       CLOUDY    39  37  93 NW10      29.91R WCI  32
CLARION *      PTCLDY    39  39 100 NW14      29.89R WCI  31
ESTHERVILLE    CLOUDY    39  34  82 N10       29.91R WCI  32
6HR MIN TEMP:  39; 6HR MAX TEMP:  46;

FORT DODGE *   CLOUDY    41  34  75 NW6       29.91R
MASON CITY     MOCLDY    39  34  82 NW15      29.88R WCI  31
6HR MIN TEMP:  39; 6HR MAX TEMP:  46; 6HR PCP: TRACE;

FOREST CITY *  MOCLDY    39  32  75 NW15      29.87R WCI  31
IOWA FALLS *     N/A     39  36  87 NW14      29.88R WCI  31
$$

IAZ007>011-017>019-026>030-037>042-050>054-066-270100-
   NORTHEAST IOWA

CITY           SKY/WX    TMP DP  RH WIND       PRES   REMARKS
CEDAR RAPIDS   CLOUDY    38  36  92 W7        29.82R WCI  33
6HR MIN TEMP:  30; 6HR MAX TEMP:  39;

CHARLES CITY * CLOUDY    39  37  93 NW9       29.85R WCI  33
CLINTON *      MOCLDY    27  25  93 E5        29.87S WCI  21
DECORAH *      CLOUDY    37  34  87 NW6       29.81R WCI  33
DUBUQUE        CLOUDY    26  25  96 S6        29.83R FOG     WCI  19
6HR MIN TEMP:  22; 6HR MAX TEMP:  26;

MONTICELLO *   CLOUDY    34  34 100 CALM      29.83R
OELWEIN *      CLOUDY    37  36  93 NW9       29.83R WCI  31
WATERLOO       CLOUDY    42  36  79 NW10      29.84R
6HR MIN TEMP:  35; 6HR MAX TEMP:  46;

$$

IAZ064-065-067-068-078-270100-
   EAST CENTRAL IOWA

CITY           SKY/WX    TMP DP  RH WIND       PRES   REMARKS
DAVENPORT      CLOUDY    33  29  85 CALM      29.84R
6HR MIN TEMP:  26; 6HR MAX TEMP:  33;

IOWA CITY      PTCLDY    34  32  92 CALM      29.85R
6HR MIN TEMP:  30; 6HR MAX TEMP:  36;

MT. PLEASANT * CLOUDY    35  34  97 SE5       29.86R WCI  31
MUSCATINE *    CLOUDY    34  32  93 CALM      29.85S
QUAD CITIES    CLOUDY    33  30  88 CALM      29.84R
6HR MIN TEMP:  26; 6HR MAX TEMP:  33;

$$

IAZ062-063-075>077-085>089-095>099-270100-
   SOUTHEAST IOWA

CITY           SKY/WX    TMP DP  RH WIND       PRES   REMARKS
BURLINGTON     MOCLDY    34  32  92 SW3       29.85R
6HR MIN TEMP:  31; 6HR MAX TEMP:  36;

FAIRFIELD *    CLOUDY    45  37  76 NW14G20   29.86R
FORT MADISON * CLOUDY    37  36  93 CALM      29.86R
KEOKUK *       CLOUDY    41  36  81 CALM      29.85R
OSKALOOSA *    CLOUDY    43  37  81 NW8       29.87R
CENTERVILLE *  CLEAR     39  36  87 W9        29.88S WCI  33
OTTUMWA        CLOUDY    44  37  76 N8        29.86R
6HR MIN TEMP:  40; 6HR MAX TEMP:  49;

WASHINGTON *   CLOUDY    43  43 100 NW8       29.84S
$$

ABBREVIATIONS USED IN REMARKS
   TC - TEMPERATURES IN CELSIUS
  WCI - WIND CHILL INDEX
   HX - HEAT INDEX
  VSB - VISIBILITY
$$



USA.gov is the U.S. government's official web portal to all federal, state and local government web resources and services.